www.pogodaiklimat.ru

Погода и климат >> Архив погоды >> Россия >> Свердловская область >> Верхнее Дуброво


ПОГОДА в Верхнем Дуброво

  • Прогноз погоды в Верхнем Дуброво
  • Монитор погоды в Верхнем Дуброво

АРХИВ ПОГОДЫ в Верхнем Дуброво

Время (UTC), дата Ветер
(напр.,м/с)
 
Видим.   Явления Облачность Т
(С)
Тd
(С)
f
(%)
Тe
(С)
Тes
(С)
Комфортность P
(гПа)
Po
(гПа)
Тmin
(С)
Tmax
(С)
R
(мм)
R24
(мм)
S
(см)
12 13.06 СЗ 2 10 км {ливн. осадки} 10/10 600 м
[Cu Sc]
+9.9 +0.2 51 +9 +9 1011.1 977.4
15 13.06 СЗ 2 10 км 10/10 600 м
[Sc]
+10.0 -1.9 43 +9 +9 1012.0 977.7
18 13.06 С 3 50 км 10/10 600 м
[Sc]
+8.4 -0.2 55 +6 +6 1013.5 979.0
21 13.06 СЗ 2 50 км 3/0
[Ci fib]
+5.7 -0.4 65 +4 +4 1014.0 979.4
00 14.06 З 1 10 км ясно +2.8 -0.1 81 +1 +2 1014.5 979.3
03 14.06 СЗ 2 10 км 8/8 600 м
[Cu med, cong Ci fib]
+8.8 +0.5 56 +7 +8 1012.9 978.5 +2.7
06 14.06 З 3 10 км 8/8 600 м
[Cu med, cong]
+12.5 -2.1 36 +11 +14 1010.9 977.0
09 14.06 З 4
{10}
10 км 6/6 600 м
[Cu med, cong]
+15.4 -2.9 28 +15 +19 1008.5 975.0
12 14.06 З 3 10 км 5/5 600 м
[Cu med, cong]
+15.6 -3.7 26 +15 +18 1008.2 974.7
15 14.06 н/о н/о
18 14.06 н/о н/о
21 14.06 штиль 0 50 км ясно +5.9 +0.2 67 +5 +5 1008.5 973.8
00 15.06 З 1 10 км 9/5 600 м
[Cu med, cong Ac trans Ci fib]
+4.2 +1.4 82 +3 +3 1009.0 974.0
03 15.06 З 1 10 км 8/3 600 м
[Sc Ac trans Ci fib]
+11.6 +4.0 60 +12 +14 1008.7 974.7 +4.0
06 15.06 З 3 10 км 8/6 600 м
[Sc Ci fib]
+14.9 +0.7 38 +14 +18 1007.9 974.3
09 15.06 З 1 10 км 8/5 600 м
[Cu Sc Ac trans]
+16.4 +0.9 35 +17 +23 1007.5 974.0
12 15.06 н/о н/о
15 15.06 З 1 10 км 8/3 600 м
[Cu Sc Ac trans Ci fib]
+16.2 +1.2 36 +17 +18 1007.0 973.5 +18.0
18 15.06 З 1 50 км 10/0
[Ac trans Ci fib]
+10.3 +1.5 54 +10 +10 1007.8 973.6
21 15.06 штиль 0 50 км 10/0
[Ac trans Ci sp]
+10.1 +2.6 60 +10 +10 1006.9 972.8
00 16.06 З 1 10 км 5/0
[Ac trans Ci fib]
+8.7 +2.5 65 +8 +9 1006.3 972.0
03 16.06 н/о н/о
06 16.06 н/о н/о
09 16.06 З 2 10 км в посл. час ливневой дождь 10/6 600 м
[Cu med, cong Ac trans Ci sp]
+10.9 +7.2 78 +10 +13 1003.7 969.9
12 16.06 н/о н/о
15 16.06 н/о н/о
18 16.06 СЗ 1 50 км 10/8 600 м
[Sc Ac As]
+8.8 +4.2 73 +8 +8 1005.5 971.4
21 16.06 З 1 50 км 10/4 600 м
[Sc Ac trans]
+5.4 +2.9 84 +4 +4 1006.2 971.7
00 17.06 З 1 10 км ясно +3.7 +1.8 87 +2 +2 1007.2 972.4 +3.7
03 17.06 С 2 10 км ясно +9.8 +2.5 60 +9 +14 1007.3 973.2
06 17.06 СЗ 3 10 км 8/6 600 м
[Cu med, cong Ci fib]
+12.1 -0.4 42 +11 +15 1006.8 973.0
09 17.06 З 2 10 км 9/6 600 м
[Cu med, cong Ci sp]
+14.4 +1.2 41 +14 +19 1005.7 972.2
12 17.06 З 1 10 км 10/8 600 м
[Cu Sc Ac trans]
+13.7 +1.8 44 +14 +15 1005.2 971.6
15 17.06 ЮЗ 1 10 км 9/6 600 м
[Cu med, cong Ac trans Ci fib]
+14.0 +2.3 45 +15 +15 1004.4 970.9
18 17.06 ЮЗ 1 6000 м слаб. ливневой дождь 10/10 300 м
[Cb cap]
+9.1 +6.9 86 +8 +8 1004.1 970.1
21 17.06 СЗ 1 20 км н/о +9.1 +7.7 91 +8 +8 1003.4 969.4
00 18.06 СЗ 1 10 км {ливн. осадки} 8/8 600 м
[Cu Sc]
+7.9 +6.1 88 +7 +7 1004.6 970.4
03 18.06 С 2 10 км 6/3 600 м
[Cu med, cong Ac trans Ci fib]
+9.1 +5.4 78 +7 +10 1006.4 972.3 +7.9 4
06 18.06 СЗ 3 10 км 8/6 600 м
[Cu med, cong Ci fib]
+12.1 +1.4 48 +11 +15 1006.9 973.1
09 18.06 СЗ 2 10 км 8/8 600 м
[Cu med, cong]
+14.4 -0.1 37 +14 +17 1007.4 973.8
12 18.06 СЗ 3 10 км 6/5 600 м
[Cu med, cong Ci fib]
+16.0 -1.0 31 +16 +19 1007.7 974.3
15 18.06 СЗ 1 10 км 3/3 600 м
[Cu med, cong]
+15.5 +0.7 37 +16 +17 1007.9 974.4 +16.2
18 18.06 ЮЗ 1 50 км 8/4 600 м
[Sc Ac trans]
+10.7 +2.7 58 +11 +11 1009.3 975.2
21 18.06 ЮЗ 1 50 км ясно +9.2 +2.5 63 +9 +9 1009.6 975.3
00 19.06 СЗ 1 10 км 1/1 600 м
[Cu hum]
+8.9 +2.7 65 +9 +9 1010.3 976.0
03 19.06 З 2 20 км 6/0 2000 м
[Ac trans Ci fib]
+13.6 +4.1 53 +13 +17 1010.1 976.4
06 19.06 З 3 20 км 3/0 2000 м
[Ac trans Ci fib]
+18.7 +1.7 32 +19 +29 1009.2 976.1
09 19.06 З 2 20 км 8/0 2000 м
[Ac trans Ci fib]
+21.2 +2.3 29 +21 +32 комфорт 1008.7 975.9
12 19.06 З 2 20 км 5/1 600 м
[Cu hum Ac trans Ci fib]
+22.7 +2.8 27 +22 +28 комфорт 1008.0 975.4
15 19.06 ЮЗ 1 20 км 8/3 600 м
[Sc Ac trans Ci fib]
+20.6 +4.6 35 +22 +23 комфорт 1008.2 975.3
18 19.06 ЮЗ 1 50 км в посл. час ливневой дождь 9/4 600 м
[Sc Ac cast Ci fib]
+14.7 +10.2 74 +15 +15 1009.7 976.2
21 19.06 н/о 8/4 600 м
[Sc Ac trans Ci fib]
00 20.06 ЮЗ 1 20 км 8/0 2000 м
[Ac trans Ci fib]
+12.4 +9.8 84 +12 +13 1011.0 977.1
03 20.06 З 1 10 км 9/0
[Ci sp]
+15.8 +10.7 72 +17 +21 1011.2 977.7 +12.2 0.3
06 20.06 З 1 10 км 10/4 600 м
[Cu med, cong Cs]
+20.9 +10.1 50 +24 +31 комфорт 1010.7 977.8
09 20.06 н/о н/о

 

Местоположение метеостанции Верхнее Дуброво (Свердловская область, Россия): широта 56.73 долгота 61.07 высота над уровнем моря 288 м.

В архиве по умолчанию представлена погода в Верхнем Дуброво за последнюю неделю. Архивные данные за месяц целиком и за предыдущие месяцы, начиная с января 2011 года, Вы можете получить, выбрав интересующий диапазон дат из раскрывающегося списка и нажав кнопку "Ввод!".


*Определитесь, кто Вы:
робот инопланетянин человек

Внимание! Время в таблицах - всемирное. Для получения местного времени необходимо прибавить поправку, которая равна 5 ч.

Смотрите также архив погоды в соседних городах и на ближайших метеорологических станциях:

Погода в Екатеринбурге (Свердловская область, Россия) (29 км)
Погода в Екатеринбурге (Бот.сад) (Свердловская область, Россия) (29 км)
Погода в Сысерти (Свердловская область, Россия) (30 км)
Погода в Каменск-Уральском (Свердловская область, Россия) (59 км)
Погода в Ревде (Свердловская область, Россия) (68 км)
Погода в Мариинске (Свердловская область, Россия) (74 км)
Погода в Верхнем Уфалее (Челябинская область, Россия) (86 км)
Погода в Артемовском (Свердловская область, Россия) (88 км)
Погода в Невьянске (Свердловская область, Россия) (99 км)
Погода в Камышлове (Свердловская область, Россия) (101 км)

Пояснения к столбцам:

Ветер - указаны скорость ветра в м/с - средняя за 10 мин, порывы в срок и между сроками (в фигурных скобках) и направление, откуда дует ветер: С - северный, СВ - северо-восточный, В - восточный, ЮВ - юго-восточный, Ю - южный, ЮЗ - юго-западный, З - западный, СЗ - северо-западный.
Видимость - горизонтальная дальность видимости в метрах или километрах. При видимости от 1 до 10 км при отсутствии осадков обычно наблюдается дымка, при ухудшении видимости до 1 км и менее - туман. В сухую погоду видимость может ухудшаться дымом, пылью или мглою.
Явления - указаны атмосферные явления, наблюдавшиеся в срок или в последний час перед сроком; фигурными скобками обозначены явления, наблюдавшиеся между сроками (за 1-3 часа до срока); квадратными скобками обозначены град или гололедные отложения с указанием их диаметра в мм.
Облачность - указаны через наклонную черту общая и нижняя облачность в баллах и высота нижней границы облаков в метрах; квадратными скобками обозначены формы облаков: Ci - перистые, Cs - перисто-слоистые, Cc - перисто-кучевые, Ac - высококучевые, As - высокослоистые, Sc - слоисто-кучевые, Ns - слоисто-дождевые, Cu - кучевые, Cb - кучево-дождевые. Подробнее классификацию облаков см. в Атласе облаков (PDF).
T - Температура воздуха - температура, измеренная на высоте 2 м над землей.
Td - Температура точки росы - температура, при понижении до которой содержащийся в воздухе водяной пар достигнет насыщения.
f - Относительная влажность воздуха - влажноcть воздуха, измеренная на высоте 2 м над землей.
Te - Эффективная температура - температура, которую ощущает одетый по сезону человек в тени. Характеристика душности погоды. При расчете учитывается влияние влажности воздуха и скорости ветра на теплоощущения человека.
Tes - Эффективная температура на солнце - температура, которую ощущает человек, с поправкой на солнечный нагрев. Характеристика знойности погоды. Зависит от высоты солнца над горизонтом, облачности и скорости ветра. Ночью, в пасмурную погоду, а также при ветре 12 м/с и более поправка равна нулю.
P - Атмосферное давление - приведенное к уровню моря атмосферное давление.
Po - Атмосферное давление - измеренное на уровне метеостанции атмосферное давление.
Tmin - Минимальная температура - минимум температуры воздуха на высоте 2 м над землей.
Tmax - Максимальная температура - максимум температуры воздуха на высоте 2 м над землей.
R - Количество осадков - Количество выпавших осадков за период времени, мм. При наведении курсора мыши на число - период времени, за который выпало указанное количество осадков.
R24 - Количество осадков - Количество выпавших осадков за 24 часа, мм.
S - Снежный покров - Высота снежного покрова, см. При наведении курсора мыши на число - состояние снежного покрова и степень покрытия местности в баллах.